User: anonymous   Login
Location: Goheenville
(40.9070°N, 79.3720°W)
Time: 19:35:42
(UTC-04:00)
Language:

NOAA 11 - Orbit

View from above orbital plane
View from above orbital plane
View from above satellite
View from above satellite

Ground track
Ground track

The orbit data is extracted from the following two-line orbital elements,

1 19531U 88089A   15108.46116573  .00000100  00000-0  73337-4 0  9998
2 19531 098.6486 183.7038 0011983 140.8873 219.3170 14.15144193370911
Epoch (UTC): 18 April 2015 11:04:04
Eccentricity: 0.0011983
inclination: 98.6486°
perigee height: 833 km
apogee height: 850 km
right ascension of ascending node: 183.7038°
argument of perigee: 140.8873°
revolutions per day: 14.15144193
mean anomaly at epoch: 219.3170°
orbit number at epoch: 37091

The dashed part of the orbit path shows where the satellite is in the earth's shadow,  

DLR